Location: Pinawa
(50.1500°N, 95.8830°W)
Time: 23:24:26
(UTC-06:00)

Amateur Radio Satellites - All Passes

Search period start: 25 February 2017 22:54
Search period end: 26 February 2017 22:54
Location: Pinawa, 50.1500°N, 95.8830°W

Satellite Date Start Highest point End Downlink Frequencies (MHz)
Time Altitude Azimuth
VELOX 1 25 Feb 22:58:43 23:02:48 39° 67° (ENE) 23:06:53 145.980
UKube-1 25 Feb 23:01:10 23:03:56 17° 58° (ENE) 23:06:43 .
O/OREOS (USA 219) 25 Feb 23:02:38 23:07:02 59° 112° (ESE) 23:11:30 437.305
SPROUT 25 Feb 23:03:00 23:06:51 34° 67° (ENE) 23:10:45 437.525
50 SAT 25 Feb 23:09:48 23:12:52 29° 68° (ENE) 23:15:57 437.505
DUCHIFAT 1 25 Feb 23:33:58 23:37:29 24° 93° (E) 23:40:57 145.980
AIST 2D 25 Feb 23:37:26 23:40:55 47° 99° (E) 23:44:21 435.315
PCSat 25 Feb 23:39:18 23:44:09 32° 37° (NE) 23:48:59 145.827
YUBILEINY 25 Feb 23:43:23 23:49:54 24° 283° (WNW) 23:56:24 435.215
RS-15 25 Feb 23:45:02 23:56:53 47° 20° (NNE) 00:08:30 29.354- 29.394
EO-79 25 Feb 23:45:08 23:49:06 36° 97° (E) 23:53:04 145.935-145.965
SO-50 25 Feb 23:59:48 00:04:15 43° 320° (NW) 00:08:39 436.795
NO-84 26 Feb 00:01:17 00:05:03 37° 220° (SW) 00:09:02 435.350 FM
NANOSAT C BR1 26 Feb 00:01:39 00:05:49 48° 99° (E) 00:09:57 145.865
POLYITAN 1 26 Feb 00:02:41 00:06:56 53° 100° (E) 00:11:08 437.675
QB50P2 26 Feb 00:05:40 00:09:57 61° 101° (ESE) 00:14:12 145.880/145.840
ESTCUBE 1 26 Feb 00:13:49 00:16:54 18° 270° (W) 00:20:00 437.505/2401.250
DX 1 26 Feb 00:24:20 00:28:38 66° 258° (WSW) 00:32:57 434.975-435.025
FO-29 26 Feb 00:25:43 00:33:06 48° 297° (WNW) 00:39:54 435.910
BUGSAT 1 26 Feb 00:28:29 00:32:19 32° 96° (E) 00:36:07 437.445
TIGRISAT 26 Feb 00:30:19 00:33:02 15° 304° (NW) 00:35:44 435.000
UNISAT 6 26 Feb 00:30:20 00:32:53 15° 305° (NW) 00:35:25 437.425
UKube-1 26 Feb 00:35:13 00:39:30 69° 257° (WSW) 00:43:49 .
VELOX 1 26 Feb 00:35:40 00:39:22 26° 266° (W) 00:43:06 145.980
Oscar 19 26 Feb 00:38:00 00:40:51 15° 87° (E) 00:43:42 437.125/150
SPROUT 26 Feb 00:39:06 00:42:49 29° 265° (W) 00:46:35 437.525
O/OREOS (USA 219) 26 Feb 00:43:13 00:46:49 23° 313° (NW) 00:50:28 437.305
50 SAT 26 Feb 00:43:13 00:46:02 22° 265° (W) 00:48:52 437.505
ITUPSAT 1 26 Feb 00:53:04 00:56:33 20° 58° (ENE) 01:00:03 437.325
BEESAT 26 Feb 00:58:58 01:02:40 23° 59° (ENE) 01:06:23 436.000
DUCHIFAT 1 26 Feb 01:09:17 01:13:18 41° 292° (WNW) 01:17:19 145.980
AIST 2D 26 Feb 01:11:32 01:13:50 16° 298° (WNW) 01:16:05 435.315
MOZHAYETS 4 26 Feb 01:16:05 01:18:11 13° 54° (NE) 01:20:17
EO-79 26 Feb 01:21:05 01:24:46 28° 295° (WNW) 01:28:27 145.935-145.965
PCSat 26 Feb 01:22:34 01:27:59 66° 239° (WSW) 01:33:20 145.827
Gurwin Techsat 1B 26 Feb 01:26:58 01:31:12 23° 91° (E) 01:35:24 435.225
NANOSAT C BR1 26 Feb 01:37:57 01:41:16 22° 298° (WNW) 01:44:34 145.865
POLYITAN 1 26 Feb 01:39:11 01:42:23 21° 299° (WNW) 01:45:35 437.675
QB50P2 26 Feb 01:42:22 01:45:20 18° 300° (WNW) 01:48:18 145.880/145.840
SO-50 26 Feb 01:42:53 01:45:50 16° 343° (NNW) 01:48:46 436.795
RS-15 26 Feb 01:58:38 02:11:07 88° 50° (NE) 02:23:07 29.354- 29.394
BUGSAT 1 26 Feb 02:03:53 02:07:39 31° 294° (WNW) 02:11:24 437.445
FO-29 26 Feb 02:12:19 02:16:16 15° 320° (NW) 02:20:07 435.910
Oscar 19 26 Feb 02:15:44 02:20:54 88° 283° (WNW) 02:26:01 437.125/150
ITUPSAT 1 26 Feb 02:29:08 02:33:55 68° 257° (WSW) 02:38:45 437.325
BEESAT 26 Feb 02:35:21 02:40:05 59° 259° (WSW) 02:44:51 436.000
MOZHAYETS 4 26 Feb 02:49:56 02:54:35 77° 73° (ENE) 02:59:15
ITAMSAT 1 26 Feb 02:51:21 02:55:39 25° 93° (E) 02:59:54 435.822/435.867
Gurwin Techsat 1B 26 Feb 03:06:18 03:11:33 60° 290° (WNW) 03:16:47 435.225
PCSat 26 Feb 03:08:38 03:10:20 11° 258° (WSW) 03:12:02 145.827
KKS-1 26 Feb 03:16:01 03:20:11 42° 68° (ENE) 03:24:24 437.445
SO-50 26 Feb 03:25:41 03:28:05 14° 8° (N) 03:30:29 436.795
AO-7 26 Feb 03:37:15 03:45:10 45° 99° (E) 03:53:00 .
STARS 26 Feb 03:48:01 03:52:07 41° 67° (ENE) 03:56:17 437.465
CUBESAT XI-V 26 Feb 03:51:22 03:55:55 56° 71° (ENE) 04:00:28 437.345
Oscar 19 26 Feb 03:56:20 03:59:32 17° 306° (NW) 04:02:43 437.125/150
M-CUBED/EXP-1 PRIME 26 Feb 04:00:57 04:04:02 42° 64° (ENE) 04:07:11 437.505
AO-85 26 Feb 04:02:41 04:06:24 26° 118° (ESE) 04:09:55 145.980
RS-15 26 Feb 04:11:59 04:22:16 34° 256° (WSW) 04:32:14 29.354- 29.394
MOZHAYETS 4 26 Feb 04:29:37 04:32:18 15° 272° (W) 04:35:01
ITAMSAT 1 26 Feb 04:30:19 04:35:27 56° 291° (WNW) 04:40:32 435.822/435.867
STRAND 1 26 Feb 04:39:46 04:40:23 10° 47° (NE) 04:40:59 437.568
Gurwin Techsat 1B 26 Feb 04:48:18 04:50:29 13° 311° (NW) 04:52:40 435.225
KKS-1 26 Feb 04:53:17 04:56:55 25° 266° (W) 05:00:36 437.445
SO-50 26 Feb 05:06:06 05:10:01 28° 32° (NNE) 05:13:54 436.795
STARS 26 Feb 05:25:01 05:28:38 25° 266° (W) 05:32:17 437.465
AO-7 26 Feb 05:30:07 05:38:08 54° 301° (WNW) 05:46:05 .
CUBESAT XI-V 26 Feb 05:30:11 05:33:39 20° 269° (W) 05:37:07 437.345
M-CUBED/EXP-1 PRIME 26 Feb 05:36:56 05:38:48 14° 262° (W) 05:40:41 437.505
AO-85 26 Feb 05:42:20 05:46:37 50° 316° (NW) 05:50:39 145.980
CUTE-I 26 Feb 05:44:36 05:48:39 21° 90° (E) 05:52:40 437.470
DOVE 4 26 Feb 05:47:05 05:51:03 26° 94° (E) 05:55:09 437.250
KAITUO 1B 26 Feb 06:06:53 06:10:04 25° 94° (E) 06:13:12 145.475/437.950
ITAMSAT 1 26 Feb 06:12:08 06:13:50 12° 312° (NW) 06:15:33 435.822/435.867
XW-2F 26 Feb 06:12:52 06:16:22 33° 96° (E) 06:19:50 145.980 - 146.000
STRAND 1 26 Feb 06:13:28 06:18:24 50° 68° (ENE) 06:23:24 437.568
XW-2D 26 Feb 06:17:58 06:21:37 40° 98° (E) 06:25:13 145.860 - 145.880
BEESAT 3 26 Feb 06:20:30 06:24:07 37° 121° (ESE) 06:27:48 437.485
XW-2B 26 Feb 06:23:00 06:26:42 44° 98° (E) 06:30:21 145.730 - 145.750
XW-2C 26 Feb 06:31:37 06:35:26 56° 100° (E) 06:39:11 145.795 - 145.815
NUDT-PHONESAT 26 Feb 06:40:23 06:44:08 57° 101° (E) 06:47:49 437.300
SO-50 26 Feb 06:46:23 06:50:53 68° 234° (SW) 06:55:19 436.795
LilacSat-2 26 Feb 06:49:25 06:53:18 89° 294° (WNW) 06:57:08 437.200
SEEDS 26 Feb 06:58:23 06:58:50 10° 85° (E) 06:59:18 437.485
BEESAT 2 26 Feb 07:00:37 07:04:20 40° 122° (ESE) 07:08:08 435.950
HO-68 26 Feb 07:08:57 07:15:02 29° 92° (E) 07:21:03 435.675
FO-29 26 Feb 07:17:49 07:20:29 12° 36° (NE) 07:23:10 435.910
CUTE-I 26 Feb 07:23:49 07:29:12 68° 289° (WNW) 07:34:32 437.470
AO-7 26 Feb 07:23:59 07:29:10 18° 324° (NW) 07:34:19 .
DOVE 4 26 Feb 07:24:28 07:28:54 46° 290° (WNW) 07:33:35 437.250
AO-85 26 Feb 07:25:24 07:27:54 15° 338° (NNW) 07:30:20 145.980
O/OREOS (USA 219) 26 Feb 07:28:48 07:33:05 37° 54° (NE) 07:37:22 437.305
CUTE 1.7 + AOD 2 26 Feb 07:35:40 07:39:35 35° 96° (E) 07:43:26 437.475
XW-2A 26 Feb 07:38:56 07:42:22 53° 101° (E) 07:45:45 145.665 - 145.685
KAITUO 1B 26 Feb 07:40:45 07:44:08 31° 292° (WNW) 07:47:28 145.475/437.950
ISS 26 Feb 07:42:12 07:44:11 15° 139° (SE) 07:46:09 437.550
XW-2F 26 Feb 07:47:16 07:50:24 24° 295° (WNW) 07:53:31 145.980 - 146.000
PRISM 26 Feb 07:52:20 07:55:32 23° 62° (ENE) 07:58:45 437.425
XW-2D 26 Feb 07:52:40 07:55:36 21° 296° (WNW) 07:58:30 145.860 - 145.880
STRAND 1 26 Feb 07:53:30 07:57:51 27° 267° (W) 08:02:13 437.568
XW-2B 26 Feb 07:57:50 08:00:38 20° 297° (WNW) 08:03:25 145.730 - 145.750
BEESAT 3 26 Feb 07:58:08 08:01:46 34° 321° (NW) 08:05:27 437.485
CUBEBUG 2 26 Feb 08:03:26 08:07:50 35° 95° (E) 08:12:11 437.445
Tancredo 1 26 Feb 08:04:47 08:07:22 22° 144° (SE) 08:09:58 437.200
XW-2C 26 Feb 08:06:49 08:09:15 16° 299° (WNW) 08:11:40 145.795 - 145.815
AO-73 26 Feb 08:10:31 08:13:18 16° 88° (E) 08:16:04 145.935
NUDT-PHONESAT 26 Feb 08:15:23 08:17:40 16° 299° (WNW) 08:19:56 437.300
Oscar 11 26 Feb 08:16:13 08:18:42 15° 88° (E) 08:21:09 .
AAUSAT CUBESAT 2 26 Feb 08:17:37 08:21:23 33° 96° (E) 08:25:06 437.432
UNISAT 6 26 Feb 08:19:51 08:23:19 22° 60° (ENE) 08:26:50 437.425
TIGRISAT 26 Feb 08:19:59 08:23:20 20° 59° (ENE) 08:26:45 435.000
LilacSat-2 26 Feb 08:25:46 08:26:57 11° 303° (WNW) 08:28:08 437.200
SO-50 26 Feb 08:29:52 08:30:28 10° 252° (WSW) 08:31:03 436.795
SEEDS 26 Feb 08:31:01 08:35:13 87° 104° (ESE) 08:39:23 437.485
BEESAT 2 26 Feb 08:38:35 08:42:12 32° 322° (NW) 08:45:54 435.950
UWE-3 26 Feb 08:38:45 08:43:19 48° 98° (E) 08:47:47 435.000/436.395/437.385
HO-68 26 Feb 08:56:13 09:03:20 69° 293° (WNW) 09:10:25 435.675
FO-29 26 Feb 08:56:40 09:03:21 38° 58° (ENE) 09:10:24 435.910
ZACube-1 26 Feb 08:57:38 09:02:04 45° 98° (E) 09:06:24 437.345
YUBILEINY 26 Feb 08:58:28 09:04:39 22° 75° (ENE) 09:10:49 435.215
CUTE-I 26 Feb 09:05:35 09:08:18 14° 310° (NW) 09:11:02 437.470
O/OREOS (USA 219) 26 Feb 09:08:22 09:12:27 32° 253° (WSW) 09:16:31 437.305
AO-85 26 Feb 09:09:21 09:10:00 10° 3° (N) 09:10:38 145.980
CUTE 1.7 + AOD 2 26 Feb 09:11:43 09:15:19 28° 295° (WNW) 09:18:54 437.475
XW-2A 26 Feb 09:12:50 09:14:45 14° 299° (WNW) 09:16:40 145.665 - 145.685
ISS 26 Feb 09:16:53 09:20:09 62° 157° (SSE) 09:23:26 437.550
PRISM 26 Feb 09:26:44 09:30:37 42° 261° (W) 09:34:31 437.425
POLYITAN 1 26 Feb 09:27:21 09:28:31 11° 54° (NE) 09:29:41 437.675
QB50P2 26 Feb 09:29:44 09:31:28 12° 55° (NE) 09:33:11 145.880/145.840
BEESAT 3 26 Feb 09:38:44 09:40:31 12° 344° (NNW) 09:42:17 437.485
Tancredo 1 26 Feb 09:40:04 09:43:19 82° 166° (SSE) 09:46:35 437.200
CUBEBUG 2 26 Feb 09:40:07 09:44:25 34° 294° (WNW) 09:48:41 437.445
DELFI C3 26 Feb 09:41:25 09:45:01 33° 96° (E) 09:48:35 145.870
AO-73 26 Feb 09:45:30 09:50:04 71° 287° (WNW) 09:54:32 145.935
Oscar 11 26 Feb 09:50:59 09:55:19 70° 287° (WNW) 09:59:36 .
AAUSAT CUBESAT 2 26 Feb 09:53:15 09:56:46 28° 295° (WNW) 10:00:17 437.432
TIGRISAT 26 Feb 09:55:06 09:59:36 62° 259° (W) 10:04:14 435.000
UNISAT 6 26 Feb 09:55:10 09:59:39 58° 260° (W) 10:04:15 437.425
SEEDS 26 Feb 10:08:19 10:10:18 13° 303° (WNW) 10:12:16 437.485
UWE-3 26 Feb 10:15:41 10:19:30 25° 298° (WNW) 10:23:17 435.000/436.395/437.385
AIST 2D 26 Feb 10:16:10 10:19:27 35° 69° (ENE) 10:22:46 435.315
BEESAT 2 26 Feb 10:19:25 10:21:10 12° 345° (NNW) 10:22:55 435.950
DUCHIFAT 1 26 Feb 10:29:54 10:33:39 32° 66° (ENE) 10:37:27 145.980
ZACube-1 26 Feb 10:34:21 10:38:07 26° 297° (WNW) 10:41:49 437.345
FO-29 26 Feb 10:40:43 10:47:57 63° 260° (W) 10:55:47 435.910
EO-79 26 Feb 10:41:36 10:45:40 48° 70° (ENE) 10:49:48 145.935-145.965
HO-68 26 Feb 10:45:08 10:49:54 20° 315° (NW) 10:54:41 435.675
AO-85 26 Feb 10:49:04 10:51:57 19° 28° (NNE) 10:54:49 145.980
YUBILEINY 26 Feb 10:51:20 11:00:10 85° 99° (E) 11:09:00 435.215
ISS 26 Feb 10:53:22 10:56:40 66° 356° (N) 10:59:57 437.550
NANOSAT C BR1 26 Feb 10:57:46 11:01:56 64° 73° (ENE) 11:06:11 145.865
POLYITAN 1 26 Feb 10:59:17 11:03:31 72° 74° (ENE) 11:07:49 437.675
QB50P2 26 Feb 11:02:18 11:06:33 82° 75° (ENE) 11:10:51 145.880/145.840
AO-7 26 Feb 11:05:40 11:07:33 11° 20° (NNE) 11:09:27 .
DELFI C3 26 Feb 11:16:25 11:19:43 26° 295° (WNW) 11:22:59 145.870
Tancredo 1 26 Feb 11:16:28 11:19:43 64° 3° (N) 11:22:56 437.200
Gurwin Techsat 1B 26 Feb 11:16:45 11:18:38 12° 48° (NE) 11:20:31 435.225
BEESAT 3 26 Feb 11:19:01 11:19:51 10° 8° (N) 11:20:41 437.485
BUGSAT 1 26 Feb 11:22:21 11:26:10 39° 68° (ENE) 11:30:03 437.445
AO-73 26 Feb 11:23:50 11:25:27 12° 306° (NW) 11:27:04 145.935
Oscar 11 26 Feb 11:29:36 11:30:39 11° 306° (NW) 11:31:42 .
LO-87 26 Feb 11:38:46 11:42:23 88° 287° (WNW) 11:46:00 145.935 - 145.965
AIST 2D 26 Feb 11:50:09 11:52:49 20° 268° (W) 11:55:30 435.315
Oscar 19 26 Feb 11:58:38 12:03:17 35° 64° (ENE) 12:07:55 437.125/150
ESTCUBE 1 26 Feb 11:59:34 12:04:04 71° 103° (ESE) 12:08:32 437.505/2401.250
BEESAT 2 26 Feb 11:59:35 12:00:41 11° 9° (N) 12:01:48 435.950
50 SAT 26 Feb 12:03:23 12:05:44 17° 92° (E) 12:08:05 437.505
DUCHIFAT 1 26 Feb 12:05:35 12:09:20 30° 265° (W) 12:13:07 145.980
DX 1 26 Feb 12:08:50 12:11:28 15° 90° (E) 12:14:05 434.975-435.025
EO-79 26 Feb 12:18:30 12:21:42 21° 268° (W) 12:24:56 145.935-145.965
UKube-1 26 Feb 12:18:50 12:21:11 14° 89° (E) 12:23:30 .
SPROUT 26 Feb 12:19:30 12:23:28 34° 96° (E) 12:27:23 437.525
VELOX 1 26 Feb 12:20:01 12:24:13 40° 98° (E) 12:28:23 145.980
AO-85 26 Feb 12:28:59 12:32:56 87° 49° (NE) 12:36:52 145.980
ISS 26 Feb 12:29:56 12:33:16 87° 187° (S) 12:36:33 437.550
FO-29 26 Feb 12:30:48 12:34:38 14° 282° (WNW) 12:38:35 435.910
NANOSAT C BR1 26 Feb 12:35:32 12:38:06 16° 271° (W) 12:40:41 145.865
POLYITAN 1 26 Feb 12:37:32 12:39:50 14° 272° (W) 12:42:08 437.675
ITAMSAT 1 26 Feb 12:38:11 12:40:13 12° 49° (NE) 12:42:15 435.822/435.867
QB50P2 26 Feb 12:41:09 12:42:56 12° 273° (W) 12:44:45 145.880/145.840
AO-7 26 Feb 12:50:52 12:57:33 28° 46° (NE) 13:04:13 .
YUBILEINY 26 Feb 12:50:54 12:58:09 28° 302° (WNW) 13:05:27 435.215
Gurwin Techsat 1B 26 Feb 12:52:19 12:57:30 57° 69° (ENE) 13:02:44 435.225
Tancredo 1 26 Feb 12:52:49 12:56:03 66° 202° (SSW) 12:59:15 437.200
BEESAT 3 26 Feb 12:55:43 12:58:53 22° 31° (NNE) 13:02:04 437.485
BUGSAT 1 26 Feb 12:58:24 13:01:41 23° 267° (W) 13:05:02 437.445
50 SAT 26 Feb 13:35:47 13:39:03 39° 290° (WNW) 13:42:18 437.505
BEESAT 2 26 Feb 13:36:33 13:39:52 23° 32° (NNE) 13:43:11 435.950
ESTCUBE 1 26 Feb 13:37:26 13:40:23 18° 302° (WNW) 13:43:20 437.505/2401.250
Oscar 19 26 Feb 13:37:46 13:42:34 39° 263° (W) 13:47:23 437.125/150
DX 1 26 Feb 13:43:47 13:48:07 68° 288° (WNW) 13:52:27 434.975-435.025
UKube-1 26 Feb 13:53:24 13:57:44 73° 287° (WNW) 14:02:01 .
SPROUT 26 Feb 13:55:33 13:59:19 30° 295° (WNW) 14:03:05 437.525
VELOX 1 26 Feb 13:56:48 14:00:31 27° 297° (WNW) 14:04:14 145.980
ISS 26 Feb 14:06:42 14:09:26 24° 215° (SW) 14:12:09 437.550
AO-85 26 Feb 14:11:08 14:12:42 12° 249° (WSW) 14:14:16 145.980
ITAMSAT 1 26 Feb 14:13:33 14:18:40 60° 69° (ENE) 14:23:50 435.822/435.867
ITUPSAT 1 26 Feb 14:25:26 14:29:12 22° 92° (E) 14:32:56 437.325
Tancredo 1 26 Feb 14:29:47 14:31:52 16° 220° (SW) 14:33:57 437.200
BEESAT 26 Feb 14:31:02 14:35:00 25° 93° (E) 14:38:57 436.000
BEESAT 3 26 Feb 14:32:56 14:36:58 79° 232° (SW) 14:40:58 437.485
Gurwin Techsat 1B 26 Feb 14:33:29 14:37:49 25° 268° (W) 14:42:10 435.225
AO-7 26 Feb 14:40:58 14:49:21 86° 68° (ENE) 14:57:46 .
MOZHAYETS 4 26 Feb 14:41:54 14:44:06 13° 86° (E) 14:46:17
BEESAT 2 26 Feb 15:14:00 15:18:04 72° 233° (SW) 15:22:06 435.950
DX 1 26 Feb 15:22:26 15:23:29 11° 307° (NW) 15:24:33 434.975-435.025
UKube-1 26 Feb 15:31:35 15:32:59 11° 306° (NW) 15:34:23 .
CUTE-I 26 Feb 15:35:22 15:36:53 11° 47° (NE) 15:38:23 437.470
ITAMSAT 1 26 Feb 15:54:26 15:58:31 23° 268° (W) 16:02:40 435.822/435.867
HO-68 26 Feb 16:01:26 16:03:10 11° 34° (NNE) 16:04:54 435.675
ITUPSAT 1 26 Feb 16:02:39 16:07:22 54° 290° (WNW) 16:12:01 437.325
LilacSat-2 26 Feb 16:04:21 16:05:29 11° 57° (ENE) 16:06:38 437.200
BEESAT 26 Feb 16:08:25 16:13:01 47° 292° (WNW) 16:17:36 436.000
PCSat 26 Feb 16:08:34 16:13:40 44° 116° (ESE) 16:18:50 145.827
BEESAT 3 26 Feb 16:12:53 16:13:52 11° 251° (WSW) 16:14:50 437.485
MOZHAYETS 4 26 Feb 16:17:16 16:21:56 86° 283° (WNW) 16:26:31
RS-15 26 Feb 16:28:18 16:38:33 35° 105° (ESE) 16:49:03 29.354- 29.394
AO-7 26 Feb 16:36:29 16:43:07 26° 269° (W) 16:49:48 .
KKS-1 26 Feb 16:38:23 16:42:41 44° 99° (E) 16:46:57 437.445
KAITUO 1B 26 Feb 16:51:23 16:54:30 24° 65° (ENE) 16:57:38 145.475/437.950
DOVE 4 26 Feb 16:57:25 17:01:15 38° 68° (ENE) 17:05:12 437.250
XW-2F 26 Feb 16:58:04 17:01:31 32° 68° (ENE) 17:04:59 145.980 - 146.000
NO-84 26 Feb 17:00:35 17:03:25 27° 136° (SE) 17:06:28 435.350 FM
XW-2D 26 Feb 17:03:24 17:07:00 38° 69° (ENE) 17:10:37 145.860 - 145.880
XW-2B 26 Feb 17:08:25 17:12:04 42° 70° (ENE) 17:15:45 145.730 - 145.750
STARS 26 Feb 17:08:35 17:12:49 41° 99° (E) 17:17:01 437.465
M-CUBED/EXP-1 PRIME 26 Feb 17:09:05 17:11:31 16° 99° (E) 17:14:03 437.505
CUTE-I 26 Feb 17:10:37 17:15:47 52° 68° (ENE) 17:21:00 437.470
XW-2C 26 Feb 17:17:00 17:20:45 52° 72° (ENE) 17:24:32 145.795 - 145.815
CUBESAT XI-V 26 Feb 17:20:15 17:24:53 74° 103° (ESE) 17:29:28 437.345
NUDT-PHONESAT 26 Feb 17:23:56 17:27:35 51° 72° (ENE) 17:31:18 437.300
LilacSat-2 26 Feb 17:35:14 17:39:08 86° 72° (ENE) 17:43:03 437.200
HO-68 26 Feb 17:42:32 17:48:56 37° 57° (ENE) 17:55:20 435.675
ITUPSAT 1 26 Feb 17:43:45 17:44:10 10° 311° (NW) 17:44:35 437.325
PCSat 26 Feb 17:52:01 17:57:09 41° 317° (NW) 18:02:19 145.827
SEEDS 26 Feb 17:53:23 17:55:45 15° 58° (ENE) 17:58:07 437.485
MOZHAYETS 4 26 Feb 17:55:59 17:58:23 14° 305° (NW) 18:00:47
UWE-3 26 Feb 18:07:13 18:08:36 11° 53° (NE) 18:09:59 435.000/436.395/437.385
XW-2A 26 Feb 18:14:39 18:17:50 37° 70° (ENE) 18:21:03 145.665 - 145.685
KKS-1 26 Feb 18:15:21 18:19:03 26° 298° (WNW) 18:22:44 437.445
STRAND 1 26 Feb 18:21:22 18:23:07 12° 84° (E) 18:24:52 437.568
KAITUO 1B 26 Feb 18:24:55 18:28:25 34° 263° (W) 18:31:56 145.475/437.950
ZACube-1 26 Feb 18:25:36 18:26:24 10° 52° (NE) 18:27:12 437.345
CUTE 1.7 + AOD 2 26 Feb 18:32:21 18:36:26 45° 70° (ENE) 18:40:31 437.475
XW-2F 26 Feb 18:32:29 18:35:43 25° 266° (W) 18:38:58 145.980 - 146.000
DOVE 4 26 Feb 18:35:44 18:39:08 24° 267° (W) 18:42:36 437.250
NO-84 26 Feb 18:37:25 18:40:49 66° 338° (NNW) 18:44:34 435.350 FM
RS-15 26 Feb 18:37:41 18:49:49 86° 311° (NW) 19:02:19 29.354- 29.394
XW-2D 26 Feb 18:38:21 18:41:21 21° 267° (W) 18:44:22 145.860 - 145.880
M-CUBED/EXP-1 PRIME 26 Feb 18:42:34 18:46:14 56° 294° (WNW) 18:50:10 437.505
XW-2B 26 Feb 18:43:37 18:46:28 19° 268° (W) 18:49:20 145.730 - 145.750
STARS 26 Feb 18:45:17 18:49:00 27° 297° (WNW) 18:52:42 437.465
CUTE-I 26 Feb 18:51:36 18:56:07 27° 267° (W) 19:00:40 437.470
XW-2C 26 Feb 18:52:51 18:55:16 16° 270° (W) 18:57:43 145.795 - 145.815
CUBESAT XI-V 26 Feb 18:58:44 19:01:44 18° 302° (WNW) 19:04:45 437.345
NUDT-PHONESAT 26 Feb 18:59:29 19:01:50 16° 270° (W) 19:04:12 437.300
YUBILEINY 26 Feb 19:00:18 19:05:10 16° 45° (NE) 19:10:01 435.215
CUBEBUG 2 26 Feb 19:05:36 19:09:55 48° 69° (ENE) 19:14:25 437.445
AO-73 26 Feb 19:09:59 19:13:29 23° 61° (ENE) 19:17:02 145.935
AAUSAT CUBESAT 2 26 Feb 19:11:50 19:15:43 40° 69° (ENE) 19:19:37 437.432
LilacSat-2 26 Feb 19:13:46 19:14:00 10° 274° (W) 19:14:14 437.200
Oscar 11 26 Feb 19:15:04 19:18:21 21° 62° (ENE) 19:21:40 .
SEEDS 26 Feb 19:26:39 19:30:53 78° 255° (WSW) 19:35:09 437.485
HO-68 26 Feb 19:29:18 19:36:22 60° 258° (WSW) 19:43:29 435.675
PCSat 26 Feb 19:38:38 19:42:02 16° 342° (NNW) 19:45:27 145.827
UWE-3 26 Feb 19:39:40 19:44:09 66° 72° (ENE) 19:48:46 435.000/436.395/437.385
XW-2A 26 Feb 19:48:27 19:50:47 17° 268° (W) 19:53:08 145.665 - 145.685
ZACube-1 26 Feb 19:57:18 20:01:45 61° 72° (ENE) 20:06:17 437.345
STRAND 1 26 Feb 19:58:01 20:03:13 74° 104° (ESE) 20:08:21 437.568
CUTE 1.7 + AOD 2 26 Feb 20:09:08 20:12:29 22° 268° (W) 20:15:51 437.475
NO-84 26 Feb 20:15:30 20:18:55 38° 359° (N) 20:22:40 435.350 FM
DELFI C3 26 Feb 20:31:07 20:34:45 36° 68° (ENE) 20:38:24 145.870
CUBEBUG 2 26 Feb 20:43:11 20:46:48 23° 269° (W) 20:50:31 437.445
AO-73 26 Feb 20:45:00 20:49:23 53° 260° (W) 20:53:53 145.935
AAUSAT CUBESAT 2 26 Feb 20:47:59 20:51:20 23° 267° (W) 20:54:42 437.432
Oscar 11 26 Feb 20:49:56 20:54:11 52° 260° (W) 20:58:28 .
RS-15 26 Feb 20:52:28 21:04:08 46° 341° (NNW) 21:15:57 29.354- 29.394
YUBILEINY 26 Feb 20:55:51 21:04:27 55° 72° (ENE) 21:12:57 435.215
PRISM 26 Feb 21:03:53 21:06:44 18° 92° (E) 21:09:35 437.425
SO-50 26 Feb 21:07:18 21:09:18 13° 109° (ESE) 21:11:16 436.795
UWE-3 26 Feb 21:18:05 21:21:05 17° 272° (W) 21:24:08 435.000/436.395/437.385
HO-68 26 Feb 21:23:07 21:25:40 12° 279° (W) 21:28:13 435.675
PCSat 26 Feb 21:25:00 21:27:45 14° 8° (N) 21:30:30 145.827
ESTCUBE 1 26 Feb 21:28:37 21:31:30 17° 58° (ENE) 21:34:23 437.505/2401.250
ZACube-1 26 Feb 21:35:19 21:38:26 18° 271° (W) 21:41:37 437.345
STRAND 1 26 Feb 21:38:07 21:41:52 21° 303° (WNW) 21:45:36 437.568
TIGRISAT 26 Feb 21:42:24 21:46:05 22° 91° (E) 21:49:41 435.000
UNISAT 6 26 Feb 21:42:31 21:46:19 23° 92° (E) 21:50:03 437.425
FO-29 26 Feb 21:46:37 21:52:15 22° 84° (E) 21:57:31 435.910
O/OREOS (USA 219) 26 Feb 21:47:28 21:50:14 16° 100° (E) 21:53:00 437.305
VELOX 1 26 Feb 21:49:35 21:50:08 10° 52° (NE) 21:50:42 145.980
NO-84 26 Feb 21:53:16 21:57:05 59° 21° (NNE) 22:01:12 435.350 FM
DELFI C3 26 Feb 22:06:26 22:09:39 23° 267° (W) 22:12:52 145.870
LO-87 26 Feb 22:19:03 22:22:35 75° 75° (ENE) 22:26:10 145.935 - 145.965
PRISM 26 Feb 22:38:22 22:42:19 51° 290° (WNW) 22:46:17 437.425
50 SAT 26 Feb 22:42:13 22:44:22 16° 62° (ENE) 22:46:32 437.505
SO-50 26 Feb 22:44:21 22:49:01 77° 128° (SE) 22:53:38 436.795
